| time (UTC) | temp F | wind direction | speed MPH | gust MPH | rain 1hr in | rain 24hr in | rain mn in | humidity % | barometer mb |
| 20260504130317 | 55 | 248 | 1.0 | 1.0 | 0.00 | 0.00 | 0.00 | 55 | 1013.0 |
| 20260504120317 | 51 | 90 | 1.0 | 1.0 | 0.00 | 0.00 | 0.00 | 57 | 1013.5 |
| 20260504110337 | 41 | 0.0 | 0.0 | 0.00 | 0.00 | 0.00 | 74 | 1013.2 | |
| 20260504100317 | 38 | 0.0 | 0.0 | 0.00 | 0.00 | 0.00 | 77 | 1013.5 | |
| 20260504081317 | 38 | 0.0 | 0.0 | 0.00 | 0.00 | 0.00 | 75 | 1013.8 | |
| 20260504080337 | 39 | 0.0 | 0.0 | 0.00 | 0.00 | 0.00 | 73 | 1013.7 | |
| 20260504070317 | 43 | 0.0 | 0.0 | 0.00 | 0.00 | 0.00 | 67 | 1013.7 | |
| 20260504050357 | 43 | 0.0 | 0.0 | 0.00 | 0.00 | 0.00 | 67 | 1013.8 | |
| 20260504045317 | 43 | 0.0 | 1.0 | 0.00 | 0.00 | 0.00 | 67 | 1013.9 | |
| 20260504044337 | 43 | 0.0 | 0.0 | 0.00 | 0.00 | 0.00 | 67 | 1014.0 | |
| 20260504043317 | 43 | 0.0 | 0.0 | 0.00 | 0.00 | 0.00 | 67 | 1013.9 | |
| 20260504042317 | 43 | 0.0 | 0.0 | 0.00 | 0.00 | 0.00 | 67 | 1014.0 | |
| 20260504041317 | 43 | 0.0 | 0.0 | 0.00 | 0.00 | 0.00 | 66 | 1014.0 | |
| 20260504040316 | 44 | 0.0 | 0.0 | 0.00 | 0.00 | 0.00 | 65 | 1014.0 | |
| 20260504035316 | 44 | 0.0 | 0.0 | 0.00 | 0.00 | 0.00 | 64 | 1014.0 | |
| 20260504034337 | 45 | 0.0 | 1.0 | 0.00 | 0.00 | 0.00 | 64 | 1013.9 | |
| 20260504033317 | 44 | 0.0 | 1.0 | 0.00 | 0.00 | 0.00 | 65 | 1013.8 | |
| 20260504032317 | 44 | 0.0 | 0.0 | 0.00 | 0.00 | 0.00 | 65 | 1013.8 | |
| 20260504031317 | 44 | 0.0 | 0.0 | 0.00 | 0.00 | 0.00 | 64 | 1013.7 | |
| 20260504030418 | 45 | 0.0 | 0.0 | 0.00 | 0.00 | 0.00 | 64 | 1013.6 | |
| 20260504025317 | 45 | 0.0 | 0.0 | 0.00 | 0.00 | 0.00 | 64 | 1013.5 | |
| 20260504024317 | 45 | 0.0 | 0.0 | 0.00 | 0.00 | 0.00 | 64 | 1013.5 | |
| 20260504023317 | 45 | 0.0 | 0.0 | 0.00 | 0.00 | 0.00 | 62 | 1013.6 | |
| 20260504022317 | 45 | 0.0 | 0.0 | 0.00 | 0.00 | 0.00 | 62 | 1013.5 | |
| 20260504021317 | 46 | 0.0 | 0.0 | 0.00 | 0.00 | 0.00 | 60 | 1013.4 | |
| 20260504020317 | 47 | 0.0 | 0.0 | 0.00 | 0.00 | 0.00 | 56 | 1013.4 | |
| 20260504015317 | 48 | 0.0 | 0.0 | 0.00 | 0.00 | 0.00 | 56 | 1013.4 | |
| 20260504014317 | 48 | 0.0 | 0.0 | 0.00 | 0.00 | 0.00 | 54 | 1013.4 | |
| 20260504013316 | 49 | 0.0 | 0.0 | 0.00 | 0.00 | 0.00 | 51 | 1013.4 | |
| 20260504012317 | 49 | 0.0 | 1.0 | 0.00 | 0.00 | 0.00 | 52 | 1013.3 | |
| 20260504011316 | 48 | 0.0 | 0.0 | 0.00 | 0.00 | 0.00 | 53 | 1013.2 | |
| 20260504010317 | 49 | 0.0 | 0.0 | 0.00 | 0.00 | 0.00 | 53 | 1013.2 | |
| 20260504005336 | 49 | 0.0 | 0.0 | 0.00 | 0.00 | 0.00 | 53 | 1013.1 | |
| 20260504004317 | 50 | 0.0 | 0.0 | 0.00 | 0.00 | 0.00 | 51 | 1013.0 | |
| 20260504003317 | 51 | 0.0 | 0.0 | 0.00 | 0.00 | 0.00 | 50 | 1013.0 | |
| 20260504002317 | 53 | 0.0 | 0.0 | 0.00 | 0.00 | 0.00 | 46 | 1012.9 | |
| 20260504001317 | 54 | 0.0 | 0.0 | 0.00 | 0.00 | 0.00 | 42 | 1012.9 | |
| 20260504000336 | 56 | 0.0 | 0.0 | 0.00 | 0.00 | 0.00 | 40 | 1012.9 | |
| 20260503235316 | 57 | 248 | 2.0 | 3.0 | 0.00 | 0.00 | 0.00 | 37 | 1012.7 |
| 20260503234317 | 58 | 248 | 2.0 | 3.0 | 0.00 | 0.00 | 0.00 | 36 | 1012.7 |
| 20260503233316 | 58 | 270 | 1.0 | 2.0 | 0.00 | 0.00 | 0.00 | 35 | 1012.5 |
| 20260503232337 | 59 | 293 | 1.0 | 2.0 | 0.00 | 0.00 | 0.00 | 34 | 1012.4 |
| 20260503231317 | 60 | 315 | 2.0 | 4.0 | 0.00 | 0.00 | 0.00 | 33 | 1012.4 |
| 20260503230317 | 60 | 293 | 2.0 | 3.0 | 0.00 | 0.00 | 0.00 | 33 | 1012.4 |
| 20260503225317 | 60 | 293 | 4.0 | 5.0 | 0.00 | 0.00 | 0.00 | 32 | 1012.4 |
| 20260503224317 | 60 | 293 | 2.0 | 3.0 | 0.00 | 0.00 | 0.00 | 33 | 1012.4 |
| 20260503223316 | 60 | 315 | 3.0 | 6.0 | 0.00 | 0.00 | 0.00 | 32 | 1012.4 |
| 20260503222317 | 60 | 315 | 6.0 | 9.0 | 0.00 | 0.00 | 0.00 | 32 | 1012.4 |
| 20260503221317 | 60 | 315 | 4.0 | 7.0 | 0.00 | 0.00 | 0.00 | 33 | 1012.5 |
| 20260503220357 | 60 | 270 | 2.0 | 5.0 | 0.00 | 0.00 | 0.00 | 33 | 1012.7 |
| 20260503215317 | 61 | 270 | 5.0 | 7.0 | 0.00 | 0.00 | 0.00 | 33 | 1012.6 |
| 20260503214317 | 61 | 293 | 5.0 | 8.0 | 0.00 | 0.00 | 0.00 | 33 | 1012.6 |
| 20260503213317 | 59 | 293 | 5.0 | 8.0 | 0.00 | 0.00 | 0.00 | 33 | 1012.5 |
| 20260503212317 | 60 | 270 | 3.0 | 6.0 | 0.00 | 0.00 | 0.00 | 33 | 1012.6 |
| 20260503211317 | 60 | 270 | 4.0 | 6.0 | 0.00 | 0.00 | 0.00 | 33 | 1012.6 |
| 20260503210317 | 60 | 293 | 7.0 | 11.0 | 0.00 | 0.00 | 0.00 | 31 | 1012.6 |
| 20260503205316 | 59 | 315 | 4.0 | 9.0 | 0.00 | 0.00 | 0.00 | 35 | 1012.7 |
| 20260503204317 | 59 | 293 | 6.0 | 9.0 | 0.00 | 0.00 | 0.00 | 33 | 1012.8 |
| 20260503203317 | 59 | 293 | 8.0 | 11.0 | 0.00 | 0.00 | 0.00 | 33 | 1012.8 |
| 20260503202317 | 59 | 315 | 3.0 | 6.0 | 0.00 | 0.00 | 0.00 | 34 | 1012.9 |
| 20260503201317 | 59 | 293 | 6.0 | 9.0 | 0.00 | 0.00 | 0.00 | 35 | 1012.9 |
| 20260503200317 | 59 | 293 | 5.0 | 8.0 | 0.00 | 0.00 | 0.00 | 36 | 1013.1 |
| 20260503195317 | 58 | 293 | 8.0 | 12.0 | 0.00 | 0.00 | 0.00 | 34 | 1013.2 |
| 20260503194316 | 58 | 270 | 3.0 | 7.0 | 0.00 | 0.00 | 0.00 | 36 | 1013.3 |
| 20260503193318 | 59 | 293 | 6.0 | 8.0 | 0.00 | 0.00 | 0.00 | 33 | 1013.5 |
| 20260503192317 | 59 | 293 | 5.0 | 10.0 | 0.00 | 0.00 | 0.00 | 34 | 1013.4 |
| 20260503191317 | 58 | 293 | 6.0 | 11.0 | 0.00 | 0.00 | 0.00 | 34 | 1013.5 |
| 20260503190317 | 57 | 293 | 4.0 | 7.0 | 0.00 | 0.00 | 0.00 | 34 | 1013.5 |
| 20260503185317 | 57 | 270 | 5.0 | 8.0 | 0.00 | 0.00 | 0.00 | 35 | 1013.8 |
| 20260503184317 | 58 | 45 | 6.0 | 12.0 | 0.00 | 0.00 | 0.00 | 33 | 1013.9 |
| 20260503183317 | 58 | 270 | 5.0 | 8.0 | 0.00 | 0.00 | 0.00 | 34 | 1013.9 |
| 20260503182317 | 58 | 293 | 6.0 | 13.0 | 0.00 | 0.00 | 0.00 | 34 | 1013.7 |
| 20260503181337 | 57 | 270 | 4.0 | 6.0 | 0.00 | 0.00 | 0.00 | 31 | 1013.9 |
| 20260503180337 | 56 | 293 | 5.0 | 7.0 | 0.00 | 0.00 | 0.00 | 34 | 1014.0 |
| 20260503175317 | 57 | 293 | 5.0 | 7.0 | 0.00 | 0.00 | 0.00 | 34 | 1014.0 |
| 20260503174317 | 56 | 248 | 7.0 | 11.0 | 0.00 | 0.00 | 0.00 | 34 | 1014.2 |
| 20260503173317 | 56 | 315 | 7.0 | 12.0 | 0.00 | 0.00 | 0.00 | 34 | 1014.1 |
| 20260503172317 | 55 | 270 | 3.0 | 5.0 | 0.00 | 0.00 | 0.00 | 38 | 1014.3 |
| 20260503171357 | 54 | 270 | 5.0 | 12.0 | 0.00 | 0.00 | 0.00 | 36 | 1014.2 |
| 20260503170317 | 55 | 225 | 4.0 | 8.0 | 0.00 | 0.00 | 0.00 | 38 | 1014.4 |
| 20260503150337 | 51 | 293 | 6.0 | 9.0 | 0.00 | 0.00 | 0.00 | 40 | 1015.4 |